OBJECT M, 68991

Orbit data source: Space-Track

You're viewing an Uncataloged Satellite

Recently launched and/or uncataloged satellites may have evolving metadata. Metadata may include but not limited to: Owner, Maufacturer, Bus, Motor, and Mission.

OBJECT M, 68991 is a satellite in SSO that was launched on Sun, 03 May 2026 UTC launched from the Air Force Western Test Range (AFWTR). Unknown objects in Earth's orbit typically refer to objects detected orbiting the Earth but have not yet been identified or cataloged. These objects could be anything from previously untracked satellites, spent rocket stages, debris from satellite collisions, or even natural meteoroids temporarily captured by Earth's gravity.

Loading next visibility...
Identifier
68991, 2026-100M
Orbit
SSO
Country
Flag of TBDTBD
Related business
None
Manufacturer
Unknown
Mission
Operational spacecraft
Bus & Motor
Unknown
Mass
Unknown
Launch date (UTC)
2026-05-03 (1 week ago)
Launch vehicle
Unknown
Launch site
Air Force Western Test Range (AFWTR)
Object type
Unknown
Shape & HBR
Unknown
Radar Cross Section
RCS unknown

Expand to show TLE details & history
Last TLE update: 7 hours ago

TLE from 7 hours ago
0 OBJECT M
1 68991U 26100M   26130.17668866  .00000904  00000-0  96515-4 0  9995
2 68991  97.7401  28.3331 0002072 279.9853  80.1131 14.91225718  1035
Epoch: 2026-05-10T04:14Z
TLE epoch observation values (Epoch: 2026-05-10T04:14:25.900Z)
Latitude
-0.00007°
Longitude
96.74167°
Altitude
596.906 km
Speed
7.561 km/s
True Right ascension
01h 53m 19s
True Declination
0° 00' 00"
Sunlit
Object was in daylight at epoch
Visualization orbit readout
Latitude
Unknown
Longitude
Unknown
Altitude
Unknown
Speed
Unknown
Apparent Right ascension
Unknown
Apparent Declination
Unknown
Sunlit
N/A
Visualization observer readout
Local Sidereal Time
18:58:47
Azimuth
Unknown
Elevation
Unknown
Doppler factor
Unknown
Orbital elements
Apogee altitude
592.575 km
Perigee altitude
589.687 km
Semi-major axis
6,969.268 km
Eccentricity
0.00021
Inclination
97.7401°
RAAN
28.3331°
Arg. of periapsis
279.9853°
True anomaly
80.13649°
Mean anomaly
80.1131°
Eccentric anomaly
80.1248°
Mean motion
3.73046 °/min
Orbital period
96.5 mins
BSTAR
0.000096515
Loading maneuver chart data...
Computing Atmospheric mass density...
Loading historical data...
Loading historical data...
Loading historical data...
Loading historical data...
Loading historical data...
Loading historical data...
Loading historical data...

Documentation

Showing up to 5 results
|